Torna al catalogo

STARLINK-34949

AttivoComunicazioniSSO
NORAD 65175·PAYLOAD·🇺🇸 United States

Lanciato Aug 14, 2025 da Vandenberg Space Force Base

Loading…

Prossimi Passaggi (prossime 24 ore)

TLE

AggiornatoSource: CelesTrak SupGP

Epoca: Sep 14, 2026, 22:26 UTC

1 65175C 25175B   26257.93520833  .00048537  00000+0  15070-2 0  2577
2 65175  97.2844 127.0276 0001862  95.3629 221.8640 15.33408541    14

Traccia STARLINK-34949 in tempo reale con AllMySat

Download on the App Store